| time (UTC) | temp C | wind direction | speed KPH | gust KPH | rain 1hr cm | rain 24hr cm | rain mn cm | humidity % | barometer mb |
| 20260509185800 | 21 | 111 | 9.7 | 16.1 | 0.00 | 0.00 | 0.00 | 25 | 1030.9 |
| 20260509185524 | 21 | 117 | 6.4 | 17.7 | 0.00 | 0.00 | 0.00 | 29 | 1031.0 |
| 20260509184800 | 21 | 92 | 6.4 | 17.7 | 0.00 | 0.00 | 0.00 | 30 | 1031.0 |
| 20260509184301 | 21 | 106 | 8.0 | 16.1 | 0.00 | 0.00 | 0.00 | 29 | 1031.0 |
| 20260509183800 | 21 | 96 | 6.4 | 17.7 | 0.00 | 0.00 | 0.00 | 30 | 1031.0 |
| 20260509183301 | 21 | 99 | 9.7 | 17.7 | 0.00 | 0.00 | 0.00 | 31 | 1031.1 |
| 20260509182759 | 21 | 69 | 6.4 | 16.1 | 0.00 | 0.00 | 0.00 | 33 | 1031.1 |
| 20260509182300 | 20 | 79 | 6.4 | 14.5 | 0.00 | 0.00 | 0.00 | 34 | 1031.1 |
| 20260509181801 | 20 | 62 | 6.4 | 16.1 | 0.00 | 0.00 | 0.00 | 33 | 1031.3 |
| 20260509181259 | 20 | 69 | 4.8 | 16.1 | 0.00 | 0.00 | 0.00 | 32 | 1031.2 |
| 20260509180800 | 20 | 86 | 6.4 | 11.3 | 0.00 | 0.00 | 0.00 | 34 | 1031.2 |
| 20260509180259 | 20 | 83 | 3.2 | 11.3 | 0.00 | 0.00 | 0.00 | 31 | 1031.2 |
| 20260509175800 | 20 | 51 | 3.2 | 9.7 | 0.00 | 0.00 | 0.00 | 32 | 1031.3 |
| 20260509175258 | 20 | 83 | 3.2 | 9.7 | 0.00 | 0.00 | 0.00 | 32 | 1031.2 |
| 20260509174759 | 20 | 51 | 4.8 | 8.0 | 0.00 | 0.00 | 0.00 | 33 | 1031.2 |
| 20260509174259 | 20 | 99 | 3.2 | 9.7 | 0.00 | 0.00 | 0.00 | 32 | 1031.2 |
| 20260509174017 | 19 | 282 | 4.8 | 9.7 | 0.00 | 0.00 | 0.00 | 32 | 1031.3 |
| 20260509173259 | 19 | 158 | 4.8 | 8.0 | 0.00 | 0.00 | 0.00 | 33 | 1031.4 |
| 20260509172759 | 18 | 59 | 3.2 | 9.7 | 0.00 | 0.00 | 0.00 | 34 | 1031.4 |
| 20260509172259 | 18 | 102 | 3.2 | 9.7 | 0.00 | 0.00 | 0.00 | 34 | 1031.4 |
| 20260509171758 | 18 | 114 | 3.2 | 6.4 | 0.00 | 0.00 | 0.00 | 35 | 1031.4 |
| 20260509171300 | 18 | 79 | 3.2 | 8.0 | 0.00 | 0.00 | 0.00 | 34 | 1031.5 |
| 20260509170758 | 18 | 118 | 3.2 | 8.0 | 0.00 | 0.00 | 0.00 | 34 | 1031.5 |
| 20260509170258 | 18 | 135 | 1.6 | 8.0 | 0.00 | 0.00 | 0.00 | 36 | 1031.5 |
| 20260509165758 | 18 | 275 | 1.6 | 4.8 | 0.00 | 0.00 | 0.00 | 35 | 1031.6 |
| 20260509165258 | 17 | 87 | 0.0 | 6.4 | 0.00 | 0.00 | 0.00 | 35 | 1031.6 |
| 20260509164758 | 17 | 51 | 1.6 | 6.4 | 0.00 | 0.00 | 0.00 | 37 | 1031.7 |
| 20260509164257 | 17 | 16 | 1.6 | 4.8 | 0.00 | 0.00 | 0.00 | 38 | 1031.9 |
| 20260509163759 | 17 | 274 | 0.0 | 8.0 | 0.00 | 0.00 | 0.00 | 39 | 1031.8 |
| 20260509163257 | 16 | 13 | 3.2 | 8.0 | 0.00 | 0.00 | 0.00 | 40 | 1032.0 |
| 20260509162759 | 16 | 38 | 1.6 | 8.0 | 0.00 | 0.00 | 0.00 | 39 | 1032.2 |
| 20260509162257 | 16 | 66 | 4.8 | 8.0 | 0.00 | 0.00 | 0.00 | 39 | 1032.2 |
| 20260509161757 | 16 | 66 | 3.2 | 6.4 | 0.00 | 0.00 | 0.00 | 42 | 1032.3 |
| 20260509161255 | 16 | 68 | 3.2 | 6.4 | 0.00 | 0.00 | 0.00 | 41 | 1032.3 |
| 20260509160753 | 16 | 87 | 3.2 | 8.0 | 0.00 | 0.00 | 0.00 | 40 | 1032.4 |
| 20260509160258 | 16 | 203 | 1.6 | 8.0 | 0.00 | 0.00 | 0.00 | 40 | 1032.4 |
| 20260509160012 | 16 | 78 | 1.6 | 4.8 | 0.00 | 0.00 | 0.00 | 42 | 1032.5 |
| 20260509155258 | 16 | 89 | 1.6 | 4.8 | 0.00 | 0.00 | 0.00 | 40 | 1032.5 |
| 20260509154756 | 16 | 353 | 0.0 | 4.8 | 0.00 | 0.00 | 0.00 | 44 | 1032.5 |
| 20260509154258 | 16 | 45 | 1.6 | 4.8 | 0.00 | 0.00 | 0.00 | 43 | 1032.4 |
| 20260509153756 | 15 | 10 | 1.6 | 6.4 | 0.00 | 0.00 | 0.00 | 45 | 1032.5 |
| 20260509153740 | 15 | 307 | 0.0 | 6.4 | 0.00 | 0.00 | 0.00 | 44 | 1032.5 |
| 20260509152756 | 15 | 329 | 1.6 | 4.8 | 0.00 | 0.00 | 0.00 | 45 | 1032.5 |
| 20260509152743 | 15 | 38 | 0.0 | 6.4 | 0.00 | 0.00 | 0.00 | 45 | 1032.6 |
| 20260509151756 | 14 | 42 | 1.6 | 6.4 | 0.00 | 0.00 | 0.00 | 45 | 1032.6 |
| 20260509151256 | 14 | 16 | 1.6 | 4.8 | 0.00 | 0.00 | 0.00 | 46 | 1032.5 |
| 20260509150757 | 14 | 80 | 0.0 | 4.8 | 0.00 | 0.00 | 0.00 | 45 | 1032.5 |
| 20260509150255 | 13 | 85 | 1.6 | 4.8 | 0.00 | 0.00 | 0.00 | 47 | 1032.6 |
| 20260509145755 | 13 | 17 | 1.6 | 4.8 | 0.00 | 0.00 | 0.00 | 47 | 1032.6 |
| 20260509145515 | 13 | 25 | 1.6 | 3.2 | 0.00 | 0.00 | 0.00 | 49 | 1032.5 |
| 20260509144755 | 13 | 32 | 1.6 | 3.2 | 0.00 | 0.00 | 0.00 | 49 | 1032.5 |
| 20260509144514 | 13 | 27 | 1.6 | 3.2 | 0.00 | 0.00 | 0.00 | 50 | 1032.5 |
| 20260509144024 | 13 | 295 | 0.0 | 4.8 | 0.00 | 0.00 | 0.00 | 51 | 1032.5 |
| 20260509143255 | 13 | 28 | 0.0 | 4.8 | 0.00 | 0.00 | 0.00 | 50 | 1032.4 |
| 20260509142754 | 12 | 25 | 0.0 | 4.8 | 0.00 | 0.00 | 0.00 | 50 | 1032.4 |
| 20260509142255 | 12 | 351 | 1.6 | 9.7 | 0.00 | 0.00 | 0.00 | 51 | 1032.4 |
| 20260509141754 | 12 | 282 | 1.6 | 11.3 | 0.00 | 0.00 | 0.00 | 51 | 1032.5 |
| 20260509141254 | 11 | 258 | 4.8 | 11.3 | 0.00 | 0.00 | 0.00 | 51 | 1032.5 |
| 20260509140755 | 11 | 262 | 6.4 | 11.3 | 0.00 | 0.00 | 0.00 | 51 | 1032.4 |
| 20260509140514 | 11 | 258 | 4.8 | 9.7 | 0.00 | 0.00 | 0.00 | 53 | 1032.4 |
| 20260509135754 | 11 | 282 | 1.6 | 16.1 | 0.00 | 0.00 | 0.00 | 53 | 1032.4 |
| 20260509135253 | 11 | 279 | 6.4 | 16.1 | 0.00 | 0.00 | 0.00 | 53 | 1032.3 |
| 20260509134755 | 11 | 278 | 3.2 | 6.4 | 0.00 | 0.00 | 0.00 | 55 | 1032.3 |
| 20260509134253 | 10 | 271 | 0.0 | 11.3 | 0.00 | 0.00 | 0.00 | 55 | 1032.3 |
| 20260509133755 | 10 | 268 | 3.2 | 11.3 | 0.00 | 0.00 | 0.00 | 56 | 1032.2 |
| 20260509133253 | 10 | 286 | 3.2 | 8.0 | 0.00 | 0.00 | 0.00 | 57 | 1032.2 |
| 20260509132753 | 9 | 275 | 3.2 | 8.0 | 0.00 | 0.00 | 0.00 | 58 | 1032.2 |
| 20260509132252 | 9 | 278 | 0.0 | 4.8 | 0.00 | 0.00 | 0.00 | 59 | 1032.2 |
| 20260509131753 | 9 | 278 | 1.6 | 4.8 | 0.00 | 0.00 | 0.00 | 59 | 1032.2 |
| 20260509131250 | 9 | 268 | 1.6 | 4.8 | 0.00 | 0.00 | 0.00 | 60 | 1032.0 |
| 20260509130752 | 8 | 269 | 0.0 | 1.6 | 0.00 | 0.00 | 0.00 | 61 | 1032.0 |
| 20260509130253 | 8 | 234 | 0.0 | 6.4 | 0.00 | 0.00 | 0.00 | 61 | 1032.0 |
| 20260509125752 | 8 | 344 | 0.0 | 6.4 | 0.00 | 0.00 | 0.00 | 60 | 1032.0 |
| 20260509125253 | 8 | 272 | 0.0 | 9.7 | 0.00 | 0.00 | 0.00 | 60 | 1032.2 |
| 20260509125013 | 8 | 271 | 1.6 | 9.7 | 0.00 | 0.00 | 0.00 | 61 | 1032.0 |
| 20260509124252 | 8 | 281 | 1.6 | 4.8 | 0.00 | 0.00 | 0.00 | 63 | 1032.2 |
| 20260509123749 | 7 | 276 | 3.2 | 4.8 | 0.00 | 0.00 | 0.00 | 64 | 1032.2 |
| 20260509123508 | 7 | 266 | 0.0 | 4.8 | 0.00 | 0.00 | 0.00 | 62 | 1032.2 |
| 20260509123008 | 8 | 259 | 1.6 | 3.2 | 0.00 | 0.00 | 0.00 | 61 | 1032.3 |
| 20260509122252 | 8 | 255 | 0.0 | 1.6 | 0.00 | 0.00 | 0.00 | 60 | 1032.2 |
| 20260509121753 | 8 | 103 | 0.0 | 1.6 | 0.00 | 0.00 | 0.00 | 59 | 1032.3 |
| 20260509121252 | 8 | 103 | 0.0 | 1.6 | 0.00 | 0.00 | 0.00 | 59 | 1032.3 |
| 20260509120751 | 8 | 130 | 0.0 | 1.6 | 0.00 | 0.00 | 0.00 | 58 | 1032.3 |
| 20260509120252 | 9 | 104 | 0.0 | 1.6 | 0.00 | 0.00 | 0.00 | 57 | 1032.3 |
| 20260509115751 | 9 | 94 | 0.0 | 8.0 | 0.00 | 0.00 | 0.00 | 55 | 1032.3 |
| 20260509115252 | 9 | 144 | 1.6 | 8.0 | 0.00 | 0.00 | 0.00 | 55 | 1032.3 |
| 20260509114750 | 10 | 63 | 1.6 | 4.8 | 0.00 | 0.00 | 0.00 | 53 | 1032.4 |
| 20260509114249 | 11 | 244 | 0.0 | 4.8 | 0.00 | 0.00 | 0.00 | 51 | 1032.3 |
| 20260509113750 | 11 | 307 | 0.0 | 6.4 | 0.00 | 0.00 | 0.00 | 51 | 1032.3 |
| 20260509113252 | 11 | 282 | 0.0 | 9.7 | 0.00 | 0.00 | 0.00 | 51 | 1032.3 |
| 20260509112251 | 11 | 299 | 4.8 | 9.7 | 0.00 | 0.00 | 0.00 | 50 | 1032.3 |
| 20260509111750 | 11 | 326 | 1.6 | 11.3 | 0.00 | 0.00 | 0.00 | 50 | 1032.2 |
| 20260509111250 | 11 | 281 | 3.2 | 11.3 | 0.00 | 0.00 | 0.00 | 50 | 1032.2 |
| 20260509110747 | 11 | 266 | 4.8 | 19.3 | 0.00 | 0.00 | 0.00 | 49 | 1032.2 |
| 20260509110246 | 12 | 288 | 8.0 | 19.3 | 0.00 | 0.00 | 0.00 | 48 | 1032.3 |
| 20260509105748 | 12 | 265 | 8.0 | 19.3 | 0.00 | 0.00 | 0.00 | 49 | 1032.3 |
| 20260509105249 | 11 | 234 | 9.7 | 16.1 | 0.00 | 0.00 | 0.00 | 49 | 1032.3 |
| 20260509104751 | 11 | 298 | 8.0 | 14.5 | 0.00 | 0.00 | 0.00 | 50 | 1032.3 |
| 20260509104521 | 11 | 274 | 6.4 | 14.5 | 0.00 | 0.00 | 0.00 | 50 | 1032.4 |
| 20260509103749 | 11 | 288 | 6.4 | 14.5 | 0.00 | 0.00 | 0.00 | 50 | 1032.4 |
| 20260509103249 | 11 | 289 | 4.8 | 8.0 | 0.00 | 0.00 | 0.00 | 51 | 1032.3 |
| 20260509102745 | 11 | 269 | 3.2 | 9.7 | 0.00 | 0.00 | 0.00 | 50 | 1032.3 |
| 20260509102246 | 11 | 262 | 4.8 | 9.7 | 0.00 | 0.00 | 0.00 | 50 | 1032.2 |
| 20260509101745 | 11 | 283 | 4.8 | 8.0 | 0.00 | 0.00 | 0.00 | 50 | 1032.2 |
| 20260509101247 | 11 | 274 | 1.6 | 6.4 | 0.00 | 0.00 | 0.00 | 50 | 1032.2 |
| 20260509100749 | 12 | 295 | 1.6 | 8.0 | 0.00 | 0.00 | 0.00 | 48 | 1031.9 |
| 20260509100249 | 12 | 288 | 4.8 | 8.0 | 0.00 | 0.00 | 0.00 | 48 | 1032.0 |
| 20260509095748 | 12 | 266 | 1.6 | 8.0 | 0.00 | 0.00 | 0.00 | 48 | 1031.9 |
| 20260509095248 | 12 | 278 | 1.6 | 8.0 | 0.00 | 0.00 | 0.00 | 47 | 1032.0 |
| 20260509094745 | 12 | 293 | 0.0 | 14.5 | 0.00 | 0.00 | 0.00 | 47 | 1031.9 |
| 20260509094244 | 12 | 266 | 6.4 | 19.3 | 0.00 | 0.00 | 0.00 | 46 | 1031.8 |
| 20260509093746 | 12 | 269 | 4.8 | 19.3 | 0.00 | 0.00 | 0.00 | 46 | 1031.7 |
| 20260509093513 | 12 | 268 | 4.8 | 14.5 | 0.00 | 0.00 | 0.00 | 46 | 1031.8 |
| 20260509092746 | 12 | 295 | 9.7 | 20.9 | 0.00 | 0.00 | 0.00 | 45 | 1031.7 |
| 20260509092248 | 12 | 283 | 9.7 | 20.9 | 0.00 | 0.00 | 0.00 | 46 | 1031.6 |
| 20260509092012 | 12 | 278 | 8.0 | 20.9 | 0.00 | 0.00 | 0.00 | 46 | 1031.5 |
| 20260509091247 | 13 | 300 | 9.7 | 24.1 | 0.00 | 0.00 | 0.00 | 45 | 1031.4 |
| 20260509090747 | 13 | 279 | 12.9 | 24.1 | 0.00 | 0.00 | 0.00 | 46 | 1031.5 |
| 20260509090247 | 13 | 282 | 11.3 | 20.9 | 0.00 | 0.00 | 0.00 | 46 | 1031.5 |
| 20260509085747 | 13 | 282 | 9.7 | 16.1 | 0.00 | 0.00 | 0.00 | 46 | 1031.5 |
| 20260509085247 | 13 | 302 | 9.7 | 20.9 | 0.00 | 0.00 | 0.00 | 46 | 1031.5 |
| 20260509084746 | 13 | 272 | 9.7 | 20.9 | 0.00 | 0.00 | 0.00 | 46 | 1031.5 |
| 20260509084247 | 12 | 285 | 8.0 | 16.1 | 0.00 | 0.00 | 0.00 | 46 | 1031.5 |
| 20260509083747 | 13 | 259 | 9.7 | 19.3 | 0.00 | 0.00 | 0.00 | 46 | 1031.5 |
| 20260509083512 | 13 | 274 | 11.3 | 19.3 | 0.00 | 0.00 | 0.00 | 46 | 1031.4 |
| 20260509082746 | 13 | 295 | 9.7 | 17.7 | 0.00 | 0.00 | 0.00 | 46 | 1031.4 |
| 20260509082246 | 13 | 276 | 8.0 | 17.7 | 0.00 | 0.00 | 0.00 | 46 | 1031.3 |
| 20260509082008 | 12 | 282 | 6.4 | 16.1 | 0.00 | 0.00 | 0.00 | 46 | 1031.3 |
| 20260509081246 | 12 | 276 | 6.4 | 14.5 | 0.00 | 0.00 | 0.00 | 47 | 1031.3 |
| 20260509080747 | 12 | 289 | 4.8 | 14.5 | 0.00 | 0.00 | 0.00 | 47 | 1031.2 |
| 20260509080246 | 13 | 241 | 4.8 | 11.3 | 0.00 | 0.00 | 0.00 | 46 | 1031.2 |
| 20260509075747 | 13 | 262 | 6.4 | 16.1 | 0.00 | 0.00 | 0.00 | 46 | 1031.1 |
| 20260509075245 | 13 | 283 | 4.8 | 19.3 | 0.00 | 0.00 | 0.00 | 46 | 1031.2 |
| 20260509074745 | 13 | 24 | 6.4 | 19.3 | 0.00 | 0.00 | 0.00 | 46 | 1031.1 |
| 20260509074246 | 13 | 288 | 11.3 | 19.3 | 0.00 | 0.00 | 0.00 | 46 | 1031.1 |
| 20260509073745 | 13 | 269 | 6.4 | 19.3 | 0.00 | 0.00 | 0.00 | 46 | 1031.0 |
| 20260509073246 | 13 | 285 | 4.8 | 17.7 | 0.00 | 0.00 | 0.00 | 46 | 1030.9 |
| 20260509072745 | 13 | 274 | 8.0 | 17.7 | 0.00 | 0.00 | 0.00 | 46 | 1030.9 |
| 20260509072513 | 13 | 279 | 6.4 | 16.1 | 0.00 | 0.00 | 0.00 | 46 | 1030.8 |
| 20260509071745 | 13 | 266 | 8.0 | 14.5 | 0.00 | 0.00 | 0.00 | 46 | 1030.8 |
| 20260509071246 | 13 | 281 | 8.0 | 16.1 | 0.00 | 0.00 | 0.00 | 46 | 1030.7 |
| 20260509070745 | 13 | 285 | 6.4 | 16.1 | 0.00 | 0.00 | 0.00 | 46 | 1030.7 |
| 20260509070244 | 13 | 299 | 6.4 | 16.1 | 0.00 | 0.00 | 0.00 | 46 | 1030.7 |
| 20260509065744 | 13 | 268 | 6.4 | 16.1 | 0.00 | 0.00 | 0.00 | 46 | 1030.7 |
| 20260509065244 | 13 | 278 | 6.4 | 14.5 | 0.00 | 0.00 | 0.00 | 46 | 1030.7 |
| 20260509064745 | 13 | 282 | 6.4 | 14.5 | 0.00 | 0.00 | 0.00 | 45 | 1030.7 |
| 20260509064245 | 13 | 275 | 6.4 | 11.3 | 0.00 | 0.00 | 0.00 | 45 | 1030.7 |
| 20260509063742 | 13 | 257 | 4.8 | 11.3 | 0.00 | 0.00 | 0.00 | 45 | 1030.6 |
| 20260509063241 | 12 | 299 | 6.4 | 11.3 | 0.00 | 0.00 | 0.00 | 46 | 1030.6 |
| 20260509062743 | 12 | 292 | 4.8 | 9.7 | 0.00 | 0.00 | 0.00 | 46 | 1030.7 |
| 20260509062506 | 12 | 248 | 6.4 | 9.7 | 0.00 | 0.00 | 0.00 | 45 | 1030.6 |
| 20260509061744 | 13 | 255 | 3.2 | 11.3 | 0.00 | 0.00 | 0.00 | 45 | 1030.6 |
| 20260509061244 | 13 | 283 | 4.8 | 16.1 | 0.00 | 0.00 | 0.00 | 45 | 1030.4 |
| 20260509060750 | 13 | 279 | 4.8 | 16.1 | 0.00 | 0.00 | 0.00 | 45 | 1030.6 |
| 20260509060743 | 13 | 264 | 4.8 | 16.1 | 0.00 | 0.00 | 0.00 | 45 | 1030.4 |
| 20260509055742 | 13 | 271 | 1.6 | 6.4 | 0.00 | 0.00 | 0.00 | 45 | 1030.4 |
| 20260509055244 | 13 | 274 | 3.2 | 14.5 | 0.00 | 0.00 | 0.00 | 44 | 1030.6 |
| 20260509054742 | 13 | 285 | 1.6 | 14.5 | 0.00 | 0.00 | 0.00 | 43 | 1030.4 |
| 20260509054242 | 13 | 268 | 4.8 | 11.3 | 0.00 | 0.00 | 0.00 | 44 | 1030.4 |
| 20260509053742 | 13 | 283 | 4.8 | 9.7 | 0.00 | 0.00 | 0.00 | 43 | 1030.4 |
| 20260509053242 | 13 | 238 | 4.8 | 9.7 | 0.00 | 0.00 | 0.00 | 44 | 1030.4 |
| 20260509052742 | 13 | 275 | 3.2 | 8.0 | 0.00 | 0.00 | 0.00 | 43 | 1030.4 |
| 20260509052242 | 13 | 254 | 1.6 | 9.7 | 0.00 | 0.00 | 0.00 | 43 | 1030.3 |
| 20260509051743 | 13 | 268 | 4.8 | 9.7 | 0.00 | 0.00 | 0.00 | 43 | 1030.3 |
| 20260509051242 | 13 | 265 | 3.2 | 8.0 | 0.00 | 0.00 | 0.00 | 43 | 1030.2 |
| 20260509050743 | 13 | 252 | 1.6 | 4.8 | 0.00 | 0.00 | 0.00 | 42 | 1030.3 |
| 20260509050241 | 13 | 259 | 1.6 | 16.1 | 0.00 | 0.00 | 0.00 | 41 | 1030.2 |
| 20260509045742 | 13 | 266 | 6.4 | 16.1 | 0.00 | 0.00 | 0.00 | 41 | 1030.2 |
| 20260509045241 | 13 | 266 | 3.2 | 8.0 | 0.00 | 0.00 | 0.00 | 42 | 1030.1 |
| 20260509044742 | 13 | 262 | 0.0 | 8.0 | 0.00 | 0.00 | 0.00 | 41 | 1030.1 |
| 20260509044732 | 13 | 276 | 1.6 | 8.0 | 0.00 | 0.00 | 0.00 | 41 | 1030.0 |
| 20260509043741 | 13 | 245 | 1.6 | 4.8 | 0.00 | 0.00 | 0.00 | 41 | 1030.0 |
| 20260509043242 | 13 | 245 | 1.6 | 8.0 | 0.00 | 0.00 | 0.00 | 40 | 1029.9 |
| 20260509043000 | 13 | 278 | 1.6 | 9.7 | 0.00 | 0.00 | 0.00 | 40 | 1029.9 |
| 20260509042242 | 13 | 283 | 3.2 | 9.7 | 0.00 | 0.00 | 0.00 | 39 | 1029.8 |
| 20260509041740 | 13 | 271 | 1.6 | 6.4 | 0.00 | 0.00 | 0.00 | 39 | 1029.7 |
| 20260509041240 | 14 | 282 | 0.0 | 9.7 | 0.00 | 0.00 | 0.00 | 38 | 1029.6 |
| 20260509040740 | 14 | 283 | 1.6 | 9.7 | 0.00 | 0.00 | 0.00 | 38 | 1029.6 |
| 20260509040505 | 14 | 283 | 3.2 | 9.7 | 0.00 | 0.00 | 0.00 | 37 | 1029.6 |
| 20260509040012 | 14 | 326 | 1.6 | 8.0 | 0.00 | 0.00 | 0.00 | 37 | 1029.5 |
| 20260509035500 | 14 | 266 | 4.8 | 6.4 | 0.00 | 0.00 | 0.00 | 37 | 1029.5 |
| 20260509034742 | 14 | 271 | 3.2 | 9.7 | 0.00 | 0.00 | 0.00 | 36 | 1029.4 |
| 20260509034247 | 15 | 288 | 1.6 | 11.3 | 0.00 | 0.00 | 0.00 | 35 | 1029.3 |
| 20260509034240 | 15 | 272 | 0.0 | 9.7 | 0.00 | 0.00 | 0.00 | 35 | 1029.3 |
| 20260509033502 | 15 | 278 | 6.4 | 11.3 | 0.00 | 0.00 | 0.00 | 35 | 1029.1 |
| 20260509033228 | 15 | 290 | 6.4 | 9.7 | 0.00 | 0.00 | 0.00 | 34 | 1028.9 |
| 20260509032502 | 15 | 250 | 3.2 | 8.0 | 0.00 | 0.00 | 0.00 | 34 | 1028.7 |
| 20260509032003 | 15 | 303 | 1.6 | 22.5 | 0.00 | 0.00 | 0.00 | 34 | 1028.6 |
| 20260509031240 | 15 | 295 | 8.0 | 22.5 | 0.00 | 0.00 | 0.00 | 33 | 1028.5 |
| 20260509030739 | 15 | 281 | 4.8 | 16.1 | 0.00 | 0.00 | 0.00 | 33 | 1028.4 |
| 20260509030456 | 16 | 281 | 3.2 | 17.7 | 0.00 | 0.00 | 0.00 | 32 | 1028.4 |
| 20260509025738 | 16 | 289 | 3.2 | 17.7 | 0.00 | 0.00 | 0.00 | 32 | 1028.3 |
| 20260509025241 | 16 | 272 | 3.2 | 8.0 | 0.00 | 0.00 | 0.00 | 32 | 1028.2 |
| 20260509024739 | 16 | 274 | 3.2 | 8.0 | 0.00 | 0.00 | 0.00 | 31 | 1028.1 |
| 20260509024239 | 17 | 6 | 1.6 | 9.7 | 0.00 | 0.00 | 0.00 | 30 | 1028.0 |
| 20260509023739 | 17 | 276 | 3.2 | 9.7 | 0.00 | 0.00 | 0.00 | 29 | 1028.0 |
| 20260509023504 | 18 | 274 | 0.0 | 4.8 | 0.00 | 0.00 | 0.00 | 28 | 1027.9 |
| 20260509023001 | 18 | 276 | 1.6 | 6.4 | 0.00 | 0.00 | 0.00 | 27 | 1027.9 |
| 20260509022239 | 18 | 10 | 1.6 | 11.3 | 0.00 | 0.00 | 0.00 | 27 | 1027.8 |
| 20260509021739 | 18 | 279 | 3.2 | 11.3 | 0.00 | 0.00 | 0.00 | 27 | 1027.8 |
| 20260509021238 | 18 | 274 | 1.6 | 11.3 | 0.00 | 0.00 | 0.00 | 26 | 1027.6 |
| 20260509020739 | 18 | 3 | 1.6 | 19.3 | 0.00 | 0.00 | 0.00 | 26 | 1027.5 |
| 20260509020237 | 19 | 31 | 6.4 | 19.3 | 0.00 | 0.00 | 0.00 | 25 | 1027.5 |
| 20260509015737 | 19 | 186 | 3.2 | 11.3 | 0.00 | 0.00 | 0.00 | 26 | 1027.5 |
| 20260509015237 | 20 | 344 | 3.2 | 19.3 | 0.00 | 0.00 | 0.00 | 25 | 1027.3 |
| 20260509014737 | 20 | 0 | 1.6 | 19.3 | 0.00 | 0.00 | 0.00 | 26 | 1027.2 |
| 20260509014237 | 20 | 327 | 4.8 | 16.1 | 0.00 | 0.00 | 0.00 | 25 | 1027.1 |
| 20260509013737 | 20 | 309 | 6.4 | 16.1 | 0.00 | 0.00 | 0.00 | 25 | 1027.1 |
| 20260509013456 | 20 | 324 | 4.8 | 19.3 | 0.00 | 0.00 | 0.00 | 26 | 1026.9 |
| 20260509012737 | 20 | 353 | 8.0 | 19.3 | 0.00 | 0.00 | 0.00 | 26 | 1026.9 |
| 20260509012240 | 20 | 285 | 3.2 | 9.7 | 0.00 | 0.00 | 0.00 | 26 | 1026.9 |
| 20260509011736 | 20 | 285 | 1.6 | 8.0 | 0.00 | 0.00 | 0.00 | 26 | 1026.9 |
| 20260509011236 | 20 | 300 | 3.2 | 14.5 | 0.00 | 0.00 | 0.00 | 26 | 1026.9 |
| 20260509010736 | 20 | 278 | 1.6 | 14.5 | 0.00 | 0.00 | 0.00 | 27 | 1026.8 |
| 20260509010236 | 19 | 259 | 1.6 | 9.7 | 0.00 | 0.00 | 0.00 | 27 | 1026.9 |
| 20260509005737 | 19 | 338 | 1.6 | 6.4 | 0.00 | 0.00 | 0.00 | 27 | 1026.8 |
| 20260509005455 | 19 | 45 | 1.6 | 14.5 | 0.00 | 0.00 | 0.00 | 28 | 1026.8 |
| 20260509004958 | 19 | 3 | 3.2 | 14.5 | 0.00 | 0.00 | 0.00 | 27 | 1026.9 |
| 20260509004236 | 19 | 281 | 0.0 | 14.5 | 0.00 | 0.00 | 0.00 | 27 | 1026.9 |
| 20260509003737 | 19 | 216 | 0.0 | 14.5 | 0.00 | 0.00 | 0.00 | 27 | 1026.7 |
| 20260509003236 | 19 | 42 | 4.8 | 11.3 | 0.00 | 0.00 | 0.00 | 27 | 1026.7 |
| 20260509002735 | 19 | 286 | 3.2 | 8.0 | 0.00 | 0.00 | 0.00 | 26 | 1026.8 |
| 20260509002236 | 19 | 248 | 3.2 | 8.0 | 0.00 | 0.00 | 0.00 | 26 | 1026.7 |
| 20260509001735 | 19 | 289 | 1.6 | 8.0 | 0.00 | 0.00 | 0.00 | 26 | 1026.8 |
| 20260509001236 | 20 | 302 | 1.6 | 11.3 | 0.00 | 0.00 | 0.00 | 27 | 1026.7 |
| 20260509000738 | 20 | 272 | 1.6 | 11.3 | 0.00 | 0.00 | 0.00 | 25 | 1026.8 |
| 20260509000728 | 20 | 264 | 0.0 | 8.0 | 0.00 | 0.00 | 0.00 | 25 | 1026.7 |
| 20260508235735 | 20 | 281 | 1.6 | 8.0 | 0.00 | 0.00 | 0.00 | 26 | 1026.8 |
| 20260508235236 | 20 | 48 | 1.6 | 6.4 | 0.00 | 0.00 | 0.00 | 26 | 1026.8 |
| 20260508234735 | 20 | 289 | 1.6 | 14.5 | 0.00 | 0.00 | 0.00 | 27 | 1026.8 |
| 20260508234239 | 19 | 324 | 3.2 | 14.5 | 0.00 | 0.00 | 0.00 | 28 | 1026.8 |
| 20260508233734 | 19 | 264 | 3.2 | 16.1 | 0.00 | 0.00 | 0.00 | 26 | 1026.7 |
| 20260508233234 | 19 | 282 | 4.8 | 16.1 | 0.00 | 0.00 | 0.00 | 26 | 1026.7 |
| 20260508232957 | 19 | 279 | 3.2 | 24.1 | 0.00 | 0.00 | 0.00 | 26 | 1026.6 |
| 20260508232453 | 19 | 265 | 6.4 | 24.1 | 0.00 | 0.00 | 0.00 | 26 | 1026.6 |
| 20260508231735 | 19 | 293 | 6.4 | 20.9 | 0.00 | 0.00 | 0.00 | 26 | 1026.6 |
| 20260508231233 | 20 | 258 | 6.4 | 20.9 | 0.00 | 0.00 | 0.00 | 25 | 1026.5 |
| 20260508230735 | 20 | 286 | 6.4 | 20.9 | 0.00 | 0.00 | 0.00 | 25 | 1026.5 |
| 20260508230234 | 20 | 282 | 6.4 | 22.5 | 0.00 | 0.00 | 0.00 | 25 | 1026.4 |
| 20260508225959 | 20 | 313 | 11.3 | 25.7 | 0.00 | 0.00 | 0.00 | 25 | 1026.2 |
| 20260508225233 | 20 | 336 | 8.0 | 25.7 | 0.00 | 0.00 | 0.00 | 25 | 1026.2 |
| 20260508224953 | 20 | 271 | 8.0 | 25.7 | 0.00 | 0.00 | 0.00 | 25 | 1026.2 |
| 20260508224234 | 20 | 293 | 8.0 | 19.3 | 0.00 | 0.00 | 0.00 | 25 | 1026.2 |
| 20260508223959 | 20 | 296 | 4.8 | 17.7 | 0.00 | 0.00 | 0.00 | 25 | 1026.0 |
| 20260508223234 | 20 | 323 | 4.8 | 22.5 | 0.00 | 0.00 | 0.00 | 25 | 1026.1 |
| 20260508222733 | 20 | 238 | 6.4 | 22.5 | 0.00 | 0.00 | 0.00 | 25 | 1025.7 |
| 20260508222716 | 20 | 295 | 8.0 | 22.5 | 0.00 | 0.00 | 0.00 | 24 | 1025.8 |
| 20260508221733 | 21 | 309 | 6.4 | 24.1 | 0.00 | 0.00 | 0.00 | 24 | 1025.7 |
| 20260508221456 | 20 | 258 | 8.0 | 24.1 | 0.00 | 0.00 | 0.00 | 25 | 1025.7 |
| 20260508220733 | 20 | 39 | 8.0 | 30.6 | 0.00 | 0.00 | 0.00 | 24 | 1025.6 |
| 20260508220232 | 21 | 275 | 8.0 | 30.6 | 0.00 | 0.00 | 0.00 | 24 | 1025.7 |
| 20260508215734 | 21 | 254 | 8.0 | 20.9 | 0.00 | 0.00 | 0.00 | 24 | 1025.8 |
| 20260508215232 | 21 | 255 | 4.8 | 22.5 | 0.00 | 0.00 | 0.00 | 24 | 1025.5 |
| 20260508214738 | 21 | 269 | 6.4 | 22.5 | 0.00 | 0.00 | 0.00 | 24 | 1025.5 |
| 20260508214232 | 21 | 264 | 6.4 | 32.2 | 0.00 | 0.00 | 0.00 | 24 | 1025.5 |
| 20260508213733 | 21 | 262 | 12.9 | 32.2 | 0.00 | 0.00 | 0.00 | 23 | 1025.4 |
| 20260508213237 | 21 | 268 | 6.4 | 20.9 | 0.00 | 0.00 | 0.00 | 24 | 1025.7 |
| 20260508212732 | 21 | 319 | 6.4 | 22.5 | 0.00 | 0.00 | 0.00 | 25 | 1025.6 |
| 20260508212232 | 20 | 290 | 11.3 | 22.5 | 0.00 | 0.00 | 0.00 | 23 | 1025.6 |
| 20260508211731 | 20 | 288 | 6.4 | 14.5 | 0.00 | 0.00 | 0.00 | 24 | 1025.5 |
| 20260508211232 | 20 | 293 | 3.2 | 22.5 | 0.00 | 0.00 | 0.00 | 25 | 1025.4 |
| 20260508210732 | 20 | 272 | 9.7 | 22.5 | 0.00 | 0.00 | 0.00 | 25 | 1025.4 |
| 20260508210232 | 20 | 295 | 3.2 | 32.2 | 0.00 | 0.00 | 0.00 | 25 | 1025.2 |
| 20260508205731 | 20 | 272 | 3.2 | 32.2 | 0.00 | 0.00 | 0.00 | 24 | 1025.3 |
| 20260508205230 | 20 | 269 | 11.3 | 25.7 | 0.00 | 0.00 | 0.00 | 24 | 1025.2 |
| 20260508204731 | 20 | 255 | 8.0 | 19.3 | 0.00 | 0.00 | 0.00 | 23 | 1025.1 |
| 20260508204455 | 20 | 314 | 9.7 | 20.9 | 0.00 | 0.00 | 0.00 | 23 | 1025.0 |
| 20260508203731 | 20 | 248 | 8.0 | 22.5 | 0.00 | 0.00 | 0.00 | 23 | 1024.9 |
| 20260508203720 | 20 | 243 | 6.4 | 22.5 | 0.00 | 0.00 | 0.00 | 23 | 1024.9 |
| 20260508202731 | 20 | 319 | 6.4 | 22.5 | 0.00 | 0.00 | 0.00 | 22 | 1024.8 |
| 20260508202230 | 20 | 286 | 6.4 | 20.9 | 0.00 | 0.00 | 0.00 | 21 | 1024.8 |
| 20260508201731 | 20 | 290 | 8.0 | 20.9 | 0.00 | 0.00 | 0.00 | 22 | 1024.8 |
| 20260508201229 | 20 | 224 | 3.2 | 19.3 | 0.00 | 0.00 | 0.00 | 24 | 1024.6 |
| 20260508200730 | 21 | 293 | 8.0 | 19.3 | 0.00 | 0.00 | 0.00 | 22 | 1024.7 |
| 20260508200230 | 21 | 278 | 4.8 | 20.9 | 0.00 | 0.00 | 0.00 | 22 | 1024.6 |
| 20260508195950 | 21 | 276 | 3.2 | 20.9 | 0.00 | 0.00 | 0.00 | 23 | 1024.6 |
| 20260508195230 | 21 | 257 | 8.0 | 16.1 | 0.00 | 0.00 | 0.00 | 23 | 1024.6 |
| 20260508194728 | 21 | 264 | 4.8 | 16.1 | 0.00 | 0.00 | 0.00 | 23 | 1024.5 |
| 20260508194230 | 21 | 223 | 4.8 | 16.1 | 0.00 | 0.00 | 0.00 | 23 | 1024.2 |
| 20260508193729 | 21 | 283 | 4.8 | 9.7 | 0.00 | 0.00 | 0.00 | 22 | 1024.5 |
| 20260508193231 | 21 | 265 | 3.2 | 14.5 | 0.00 | 0.00 | 0.00 | 25 | 1024.5 |
| 20260508192728 | 22 | 285 | 4.8 | 19.3 | 0.00 | 0.00 | 0.00 | 24 | 1024.4 |
| 20260508192228 | 22 | 281 | 4.8 | 19.3 | 0.00 | 0.00 | 0.00 | 23 | 1024.4 |
| 20260508191728 | 21 | 312 | 6.4 | 16.1 | 0.00 | 0.00 | 0.00 | 24 | 1024.5 |
| 20260508191228 | 21 | 319 | 3.2 | 16.1 | 0.00 | 0.00 | 0.00 | 25 | 1024.6 |
| 20260508190729 | 20 | 90 | 3.2 | 20.9 | 0.00 | 0.00 | 0.00 | 27 | 1024.7 |